Location: Gettysburg
(39.8310°N, 77.2310°W)
Time: 03:57:06
(UTC-05:00)

ATLAS 2AS CENTAUR R/B - Visible Passes

Search period start: 27 February 2017 00:00
Search period end: 09 March 2017 00:00
Orbit: 907 x 1305 km, 63.7° (Epoch: 24 February)

Date Brightness Start Highest point End Pass type
(mag) Time Alt. Az. Time Alt. Az. Time Alt. Az.
27 Feb 4.8 18:51:25 10° NNW 18:55:24 14° NNE 18:59:20 10° NE visible
27 Feb 4.0 20:41:57 10° NNW 20:48:06 33° NNE 20:48:06 33° NNE visible
27 Feb 4.8 22:32:52 10° NW 22:35:32 23° NW 22:35:32 23° NW visible
28 Feb 4.1 19:57:17 10° NNW 20:03:49 26° NE 20:04:56 25° NE visible
28 Feb 4.1 21:47:55 10° NNW 21:52:24 37° NNW 21:52:24 37° NNW visible
01 Mar 4.5 19:12:38 10° NNW 19:18:14 20° NNE 19:21:49 15° ENE visible
01 Mar 3.5 21:03:06 10° NNW 21:09:17 49° N 21:09:17 49° N visible
01 Mar 5.1 22:54:55 10° NW 22:56:44 17° WNW 22:56:44 17° WNW visible
02 Mar 4.7 18:27:55 10° NNW 18:32:31 16° NNE 18:37:01 10° NE visible
02 Mar 3.5 20:18:23 10° NNW 20:25:58 42° NE 20:26:12 42° NE visible
02 Mar 4.4 22:09:34 10° NW 22:13:40 31° WNW 22:13:40 31° WNW visible
03 Mar 3.9 19:33:42 10° NNW 19:40:41 31° NE 19:43:11 26° ENE visible
03 Mar 3.5 21:24:29 10° NW 21:30:39 55° NW 21:30:39 55° NW visible
04 Mar 4.3 18:49:03 10° NNW 18:55:13 23° NNE 19:00:13 13° ENE visible
04 Mar 2.8 20:39:36 10° NNW 20:47:41 75° NE 20:47:41 75° NE visible
04 Mar 4.9 22:31:59 10° WNW 22:35:09 19° WNW 22:35:09 19° WNW visible
05 Mar 3.2 19:54:50 10° NNW 20:02:41 52° NE 20:04:47 42° E visible
05 Mar 4.1 21:46:21 10° NW 21:52:16 36° W 21:52:16 36° W visible
06 Mar 3.7 19:10:08 10° NNW 19:17:30 37° NE 19:21:57 21° E visible
06 Mar 3.2 21:01:08 10° NW 21:08:55 59° WSW 21:09:27 58° SW visible
07 Mar 4.1 18:25:28 10° NNW 18:32:08 27° NE 18:38:30 10° E visible
07 Mar 2.9 20:16:08 10° NW 20:24:13 88° WSW 20:26:42 48° SSE visible
07 Mar 4.9 22:09:23 10° WNW 22:14:01 17° WSW 22:14:12 17° WSW visible
08 Mar 3.0 19:31:18 10° NNW 19:39:19 65° NE 19:44:04 25° SE visible
08 Mar 4.3 21:23:16 10° NW 21:29:43 29° WSW 21:31:34 26° SW visible
